Rbgn^[z[y[W
メイン
   新天体発見情報
     Comet C/2024 B1 (Lemmon)
投稿するにはまず登録を

フラット表示 前のトピック | 次のトピック
投稿者 スレッド
佐藤裕久
投稿日時: 2024-2-15 18:29
モデレータ
登録日: 2005-6-12
居住地: 日本
投稿: 2701
オンライン
Comet C/2024 B1 (Lemmon)

1月16日、アリゾナ州にあるMt Lemmon サーベイの1.5-m 反射望遠鏡で小惑星状天体が発見された。
小惑星センターのPCCP webpageにに公表後、R. Weryk (西オンタリオ大学,物理および天文学科)は、
この天体をHaleakalaにあるPan-STARRS1とPan-STARRS2 1.8-m Ritchey-Chretien 反射望遠鏡で
発見前の露出から見つけた。
佐藤英貴氏(東京都文京区,2024年1月31.05日UT、60-秒CCD露出20枚のスタック, "Deep Sky Chile" 
0.51-m f/6.8 アストログラフ, Rio Hurtado, チリ, 遠隔操作:強く集光した7"のコマが見えたが、
尾はない。3".6の円形範囲で測定した光度は20.6等であった)らCCD位置観測者によって彗星状と観
測された。

彗星機能の報告は次のとおり、

OC   Date        Reporter           Coma    Tail    PA          Exposures
X07  2024-01-31  H. Sato            7"                           20x60s
204  2024-02-01  A. Aletti          5"                          240x30s

発見位置は次のとおり、

     2024 UT             R.A. (2000) Decl.       Mag.
     Jan. 16.17491    3 54 33.40   -12 59 26.6   20.6
          16.18055    3 54 33.09   -12 59 22.1   20.7
          16.18618    3 54 32.89   -12 59 17.0   21.4
          16.19182    3 54 32.57   -12 59 12.0   20.9

MPCの双曲線軌道要素、位置推算表は次のとおり、

Orbital elements:
    C/2024 B1 (Lemmon)                                                          
Epoch 2023 Sept. 13.0 TT = JDT 2460200.5                                        
T 2024 Oct. 7.74710 TT                                  Bell                    
q   1.6330468            (2000.0)            P               Q                  
z  -0.0004969      Peri.   66.23065     -0.21908572     -0.30116649             
 +/-0.0000308      Node    79.20379     +0.07085445     -0.95357019             
e   1.0008114      Incl.   70.87143     +0.97312954     +0.00162713             
From 53 observations 2023 Oct. 13-2024 Feb. 2, mean residual 0".4.              
                                                                                
Ephemeris:
Date    TT    R. A. (2000) Decl.     Delta      r    Elong.  Phase   m1
2024 01 09    04 00 27.6 -14 38 38   3.1032  3.6853   119.3    13.5  21.1
...
2024 01 24    03 49 19.7 -11 03 07   3.1380  3.5430   106.3    15.5  21.0
...
2024 02 01    03 45 21.2 -08 58 01   3.1709  3.4670    99.2    16.3  20.9
...
2024 02 07    03 43 17.8 -07 21 29   3.2001  3.4099    93.8    16.8  20.9
2024 02 08    03 43 01.8 -07 05 14   3.2052  3.4004    92.9    16.8  20.8
2024 02 09    03 42 47.1 -06 48 57   3.2104  3.3909    92.0    16.9  20.8
...
2024 02 15    03 41 46.2 -05 10 41   3.2429  3.3338    86.6    17.2  20.8
...
2024 02 23    03 41 34.8 -02 59 01   3.2876  3.2576    79.6    17.4  20.7
...
2024 03 09    03 44 32.2 +01 06 31   3.3689  3.1148    66.8    17.0  20.6

(MPEC 2024-C86、CBET 5344)

フラット表示 前のトピック | 次のトピック

題名 投稿者 日時
 » Comet C/2024 B1 (Lemmon) 佐藤裕久 2024-2-15 18:29

投稿するにはまず登録を
 
© 1999 Tsutomu Seki.